Wind_Speed
10 9 8 6 4 4 5 6 7 7 7 7 8 8 7 8 9 9 11 11 10 7 4 3 4 2 2 4 6 6 6 5 6 7 7 5 5 4 4 2 1 2 5 9 9 8 6 5 5 4 3 4 5 6 6 8 11 13 14 15 14 14 14
11 9 8 6 4 3 5 6 5 5 6 6 6 7 7 9 10 9 10 11 11 8 3 6 8 6 7 7 6 6 6 5 6 7 6 4 3 3 5 5 5 4 2 3 4 6 6 7 7 5 4 5 6 7 6 7 9 9 9 12 13 13 13
11 9 9 7 5 4 3 4 4 3 5 5 5 7 7 9 10 10 10 9 9 8 5 7 9 9 9 9 9 9 8 6 6 6 5 4 4 5 6 5 3 2 2 3 3 1 3 5 5 4 3 4 5 7 7 9 10 9 7 9 10 12 13
12 11 11 8 6 5 3 3 4 3 2 3 4 5 6 7 8 9 9 9 9 9 8 8 8 9 9 10 10 9 9 9 8 7 5 4 5 5 7 8 7 5 4 2 2 3 2 2 3 2 3 6 7 7 8 9 11 12 13 13 13 14 15
13 13 12 9 7 6 4 3 4 3 1 2 3 3 4 5 6 7 8 9 9 9 9 8 7 7 7 8 8 8 8 8 8 8 7 6 7 6 6 7 6 5 7 6 6 6 6 4 4 3 1 5 6 5 6 9 9 9 10 12 14 16 17
14 14 12 10 8 7 5 5 5 4 3 1 1 2 3 3 4 5 6 7 7 7 7 7 6 6 7 7 7 7 7 7 7 7 7 7 6 6 6 7 5 3 5 5 4 2 3 3 2 3 4 3 5 5 5 7 8 8 6 6 7 9 10
16 15 13 11 10 8 6 6 6 5 5 4 2 1 2 2 3 4 4 5 5 5 5 6 6 6 6 5 6 7 7 7 7 7 7 7 6 5 5 5 4 3 2 2 3 3 3 1 1 2 3 3 5 5 3 5 7 7 7 6 5 6 8
17 16 14 11 10 10 9 8 7 7 7 7 5 4 1 1 2 2 2 2 3 3 4 4 4 5 5 3 5 6 6 7 7 6 7 7 7 6 5 5 4 4 3 3 3 3 1 2 2 2 3 2 2 1 2 3 3 3 4 4 3 5 8
16 15 15 12 11 10 10 10 9 9 8 8 8 8 4 2 2 3 3 3 3 2 3 2 2 3 3 2 4 5 5 6 6 6 7 7 7 7 6 5 5 5 5 4 4 3 1 2 2 3 5 7 6 5 4 2 1 1 3 4 4 3 4
15 14 14 13 11 10 11 11 10 9 10 9 10 11 9 5 4 4 5 5 4 3 2 2 2 2 1 1 3 3 4 5 5 6 6 6 7 6 6 6 5 6 6 5 5 5 4 3 2 3 4 5 7 7 6 4 3 3 1 2 3 2 2
16 14 13 13 11 10 11 11 11 10 10 11 11 13 13 10 8 6 6 7 6 5 4 3 2 2 1 1 2 3 3 4 4 5 5 6 6 6 6 6 5 5 6 5 5 5 5 5 4 3 3 2 1 3 5 7 6 5 5 5 6 8 8
17 15 13 13 12 12 12 12 11 11 11 12 12 14 16 14 11 10 9 9 9 8 6 5 4 3 2 2 2 2 2 2 3 4 4 4 4 4 5 4 4 5 6 6 5 6 6 6 6 6 4 2 1 3 4 7 8 7 7 7 7 8 10
16 15 15 15 14 13 14 14 13 11 11 13 13 15 17 17 15 14 12 11 11 11 10 8 7 6 5 4 3 3 2 1 3 4 3 2 2 3 3 3 3 4 5 6 5 6 7 8 8 9 9 8 6 6 7 8 10 11 10 10 11 12 11
16 16 17 17 15 16 17 16 15 14 14 14 15 15 18 18 17 15 15 14 13 14 13 11 11 9 8 7 6 5 5 4 3 4 5 3 3 3 2 2 2 2 3 4 5 6 6 6 7 8 10 11 10 10 10 10 12 15 15 13 14 15 15
16 17 17 17 18 18 18 18 18 17 16 16 16 16 18 19 18 16 16 16 14 14 15 14 13 12 11 10 9 8 9 8 6 6 7 7 6 6 4 2 2 3 3 3 4 5 5 4 3 3 4 6 6 7 8 10 12 16 18 17 16 17 17
18 19 18 18 18 19 18 19 20 19 18 18 18 19 19 19 19 18 18 18 16 15 15 15 15 15 13 13 12 12 12 11 9 8 10 10 9 9 7 4 5 6 5 5 5 6 6 6 5 3 3 5 6 7 9 11 12 15 19 20 20 20 20
21 21 20 20 19 19 19 20 21 21 21 21 21 20 21 22 22 21 20 20 18 17 17 17 17 17 16 14 14 14 14 14 12 11 12 12 9 10 11 9 7 8 8 7 8 7 7 6 6 6 7 7 7 7 8 10 12 14 17 20 21 20 20
18 19 20 21 21 20 20 19 20 20 21 22 21 21 23 25 24 22 22 22 20 20 19 19 19 19 18 16 15 16 16 17 15 13 13 14 10 11 14 12 9 8 9 8 8 8 7 7 8 9 10 10 9 9 10 11 13 14 16 19 21 21 21
12 12 14 16 18 20 20 19 20 22 22 23 23 24 26 26 24 22 23 23 22 22 22 22 21 20 19 18 16 16 17 18 18 15 15 15 12 14 16 14 11 11 11 10 10 10 10 10 11 11 12 13 13 13 14 15 16 17 17 19 21 22 22
7 8 10 12 14 16 17 17 19 22 24 24 25 27 28 28 24 22 22 22 22 25 25 23 22 21 20 20 19 18 18 19 19 17 16 15 15 17 17 16 14 13 13 12 12 12 12 12 13 13 14 15 16 16 17 17 17 18 19 20 21 21 21
3 4 6 7 9 10 11 12 14 18 22 23 24 25 26 28 26 23 24 25 26 28 27 25 22 21 22 23 22 21 20 20 19 19 18 17 17 18 17 16 15 15 14 14 13 13 13 14 14 15 15 16 17 18 18 19 19 19 19 19 20 20 20
3 3 3 3 5 6 6 7 8 12 16 18 19 19 21 24 25 24 25 26 26 27 27 25 24 24 25 25 24 23 21 20 20 20 20 19 18 18 17 16 16 16 15 14 14 14 15 15 16 17 17 18 19 20 20 21 21 21 21 21 21 21 21
3 3 3 4 5 6 7 8 9 10 11 12 14 15 16 20 22 23 24 24 24 25 24 24 26 28 29 30 28 24 22 22 21 20 20 20 19 18 18 17 17 17 16 15 15 16 17 17 18 19 20 20 21 21 21 21 21 21 22 23 23 23 24
3 3 4 5 6 7 7 9 10 11 13 13 14 14 14 15 17 18 20 21 22 24 24 24 25 28 31 33 29 24 23 24 23 21 20 20 19 19 18 17 17 17 18 17 17 17 18 19 20 21 22 22 22 22 22 23 23 23 23 24 25 25 26
4 5 5 5 6 7 7 8 9 11 12 14 15 16 15 15 16 16 16 17 18 20 23 24 25 26 28 30 27 25 25 26 25 22 21 20 19 19 18 18 17 18 18 19 19 19 19 20 21 22 23 23 24 24 24 25 25 25 26 26 27 27 27
5 5 6 6 7 8 8 8 9 10 12 13 14 16 17 16 17 18 18 19 18 19 22 23 23 23 25 27 27 27 27 27 26 24 22 22 21 20 20 20 19 19 20 20 20 20 21 21 21 21 22 23 25 26 26 27 27 28 28 29 30 30 29
6 6 6 7 8 9 9 9 10 11 12 13 13 14 16 16 18 19 21 22 21 20 23 23 20 19 22 26 29 28 27 28 28 25 24 24 24 23 22 22 21 20 20 20 21 21 21 21 20 21 22 23 25 26 27 28 28 29 30 30 31 32 30
7 7 8 8 9 10 10 11 11 12 12 13 13 14 15 16 18 19 21 23 22 21 22 22 20 18 20 24 27 27 27 28 28 27 27 28 27 26 25 23 22 21 21 22 23 23 23 22 22 23 24 26 27 27 27 27 27 28 29 30 31 32 32
8 9 10 10 10 11 11 11 12 12 13 14 14 14 15 16 18 19 21 22 23 23 23 22 22 22 21 23 25 26 27 29 28 28 29 29 27 25 23 22 22 22 22 22 23 24 23 23 24 26 27 28 28 28 28 28 28 28 27 28 29 31 32
10 11 11 11 12 12 12 12 13 13 14 14 14 14 15 16 17 18 20 22 23 24 23 23 24 23 23 24 25 26 27 27 26 27 28 26 24 22 20 20 21 21 21 22 23 23 24 25 26 28 29 30 30 31 31 30 30 29 27 27 28 29 30
11 12 12 13 13 14 14 14 14 14 15 15 15 15 15 16 16 18 20 22 23 24 23 22 23 22 22 23 24 24 23 22 22 23 22 19 17 16 15 15 17 18 19 21 23 25 26 27 28 29 30 31 32 33 33 32 31 30 30 30 31 31 32
12 13 14 15 15 16 16 16 16 15 15 15 15 15 15 16 18 20 22 23 24 25 24 22 22 21 21 22 22 20 19 20 20 20 18 15 14 13 12 12 14 17 18 21 24 26 26 28 28 29 31 32 34 35 35 34 34 34 35 35 36 36 35
14 14 15 15 15 16 16 16 16 15 15 15 14 14 16 19 20 21 22 22 23 24 24 22 21 20 19 19 20 20 21 22 22 22 21 20 18 17 15 16 18 20 19 21 23 25 26 27 28 30 32 34 36 36 36 36 37 37 38 39 40 40 39
15 15 15 15 16 16 15 15 15 14 14 14 14 15 19 22 23 23 23 22 21 21 21 19 18 17 17 18 20 21 22 24 25 24 22 20 19 18 17 17 19 20 19 21 23 25 27 29 31 33 34 35 36 37 37 39 39 39 40 41 41 40 40
18 18 18 18 18 18 17 15 15 15 15 14 14 17 21 23 24 24 24 22 19 17 17 17 16 16 17 18 20 22 22 24 24 22 20 18 18 18 17 17 19 20 21 23 26 27 29 31 32 34 35 35 36 36 36 36 36 36 37 36 36 35 34
18 19 19 18 18 18 18 17 16 16 16 15 15 18 22 22 22 22 21 19 17 16 16 15 15 15 15 16 18 20 20 20 20 19 18 17 17 17 17 17 19 21 23 25 27 27 29 30 31 32 31 30 29 29 29 29 29 29 30 29 29 29 28
16 17 17 17 17 18 19 19 18 17 16 15 17 20 22 22 20 19 18 17 16 16 17 16 15 14 14 14 15 16 16 15 15 15 15 15 16 17 17 17 19 22 23 24 25 26 27 27 26 25 23 23 23 23 23 23 23 24 25 25 24 25 25
Wind_Direction
149 166 173 163 150 117 93 82 74 73 74 73 78 78 77 87 95 100 109 107 88 76 42 49 114 130 77 138 160 165 149 122 99 79 67 57 49 63 68 42 342 277 245 226 223 225 236 261 245 217 220 244 260 263 256 248 242 242 248 252 255 254 250
176 178 176 173 163 128 100 97 88 77 83 84 86 91 82 79 86 90 102 115 113 111 87 58 74 76 67 78 97 124 147 153 146 138 128 125 139 116 71 48 31 16 317 238 236 239 253 278 272 258 256 260 271 270 255 252 258 258 259 258 255 252 253
188 174 174 184 174 153 127 117 111 74 77 82 80 87 83 78 82 82 84 96 108 112 98 73 71 73 75 76 79 87 94 102 129 151 159 164 173 158 130 120 110 68 33 16 21 284 269 289 288 293 308 311 315 305 284 272 271 271 274 275 268 263 264
187 168 177 193 184 175 171 130 126 115 79 71 76 85 83 80 80 80 81 81 84 87 81 75 71 70 76 79 80 81 84 90 100 111 119 128 129 138 149 150 150 154 148 116 122 175 207 273 284 295 0 345 332 332 326 307 286 273 267 270 274 273 270
185 172 186 200 191 191 194 154 154 180 192 67 72 83 77 79 83 82 83 79 75 75 76 77 71 68 71 73 75 75 78 82 84 88 88 92 100 107 135 137 128 160 180 191 205 214 228 242 255 247 304 341 323 310 318 314 308 297 283 277 277 275 271
186 178 192 200 193 199 204 180 179 207 231 268 37 80 75 67 75 79 80 80 76 71 72 76 73 73 71 63 63 65 67 73 77 82 81 79 85 90 115 125 114 136 170 195 213 234 277 248 218 232 236 272 278 268 288 306 314 322 329 324 310 302 295
188 184 193 203 202 201 207 199 187 207 240 259 290 338 61 42 42 62 67 68 74 72 72 74 71 77 82 63 52 54 53 59 64 69 75 78 80 80 95 113 109 101 105 128 141 97 27 20 148 245 254 245 254 261 290 308 303 305 320 338 358 6 355
194 188 189 203 209 198 201 214 198 197 232 254 262 274 317 28 0 13 25 39 64 69 65 71 72 84 101 78 51 51 47 50 57 63 67 67 68 70 74 85 84 71 62 66 99 108 50 25 51 13 3 5 331 312 312 294 288 320 346 346 6 18 4
198 193 186 196 215 203 195 217 216 197 215 245 255 264 279 293 314 330 332 345 22 48 52 57 56 72 91 62 54 57 53 52 53 58 62 62 64 65 63 68 71 64 59 51 58 68 44 33 53 55 38 17 6 8 352 310 221 22 52 106 127 62 36
195 196 187 189 214 216 198 210 225 210 208 230 248 259 269 279 293 310 314 322 341 353 12 22 17 48 54 4 39 44 48 55 51 51 53 54 60 63 61 63 63 58 49 36 46 53 38 34 55 88 79 26 0 360 351 330 286 285 320 144 182 252 255
190 193 189 189 206 220 209 208 222 224 218 221 236 254 265 272 281 292 298 301 312 321 330 335 333 5 354 315 0 14 30 42 42 51 52 47 52 54 56 60 61 60 48 35 45 48 39 40 39 51 105 122 332 321 316 311 306 301 294 270 256 258 255
190 191 189 190 199 213 215 209 215 229 234 229 229 245 260 269 275 281 284 287 295 301 303 303 301 308 296 277 302 326 7 24 8 23 42 48 49 48 52 55 57 56 43 35 42 36 33 41 39 33 38 61 242 261 286 302 305 311 310 297 285 276 268
195 195 194 195 197 207 217 217 216 222 236 242 237 239 254 265 271 277 278 276 280 286 291 289 285 286 277 264 273 286 298 338 327 333 354 31 32 30 43 41 52 62 42 33 36 27 26 24 20 22 17 13 10 353 344 331 314 315 323 317 307 306 302
200 204 207 206 205 212 223 229 229 225 228 240 245 243 251 259 264 268 270 270 270 273 278 280 277 278 274 266 264 261 268 278 273 282 297 309 325 331 349 9 22 52 43 30 24 18 23 13 359 4 0 356 0 352 338 328 314 312 320 322 314 313 315
214 221 224 221 219 223 227 232 239 237 230 233 240 244 249 255 259 258 257 259 259 258 264 268 269 270 269 266 264 256 261 272 262 251 267 283 293 296 297 288 289 316 351 6 7 7 14 15 12 21 350 323 321 314 305 302 300 302 311 321 323 321 324
230 233 232 227 228 233 234 237 243 244 239 237 237 239 243 249 253 253 249 250 247 244 248 254 258 262 262 259 261 259 259 268 269 253 253 266 274 276 278 268 262 284 308 322 337 350 355 3 14 14 332 304 303 304 304 303 302 304 310 317 320 321 322
233 231 229 226 229 234 237 243 250 249 247 248 245 239 237 242 247 248 245 245 243 240 242 246 249 254 256 253 252 254 258 265 270 260 250 255 255 252 261 268 271 282 296 308 320 331 336 342 345 329 320 321 315 305 299 295 295 297 298 303 308 310 309
236 233 231 230 231 231 230 234 243 245 245 251 256 252 245 243 245 244 241 242 243 240 240 243 246 249 254 254 244 243 251 261 268 263 250 250 243 230 243 258 264 268 280 292 300 306 309 310 312 312 315 320 317 306 297 293 293 295 294 297 302 306 306
245 246 244 244 240 235 232 232 237 241 241 243 248 250 246 243 243 242 241 242 244 244 242 242 243 246 252 255 249 242 244 252 261 259 247 245 238 225 234 250 257 258 266 275 283 288 292 295 299 306 312 315 316 313 310 308 307 306 304 302 303 305 308
250 250 250 253 251 247 245 246 247 247 246 245 244 245 246 249 253 254 252 250 250 250 246 241 240 243 247 250 250 247 244 247 253 252 244 239 233 230 236 247 253 259 265 270 276 282 286 291 296 303 309 311 313 312 312 312 309 306 303 301 301 302 303
278 266 257 258 264 263 260 260 260 257 254 253 252 251 252 256 259 259 256 255 256 254 250 243 240 240 242 246 248 248 248 249 248 246 242 236 230 234 241 245 250 259 265 271 277 281 286 292 296 300 304 305 307 307 307 308 306 304 302 299 298 298 297
287 305 306 301 301 300 292 282 277 268 262 261 264 265 263 261 259 256 254 254 256 256 253 248 245 241 240 242 243 244 248 250 246 241 239 235 232 235 241 247 256 264 270 277 283 285 288 291 293 297 300 301 302 302 304 305 305 305 302 296 294 293 289
280 291 284 278 280 286 288 288 286 280 276 274 273 272 268 263 260 260 259 257 253 252 250 248 246 242 238 239 241 245 249 248 243 238 234 234 234 236 242 253 265 274 279 283 286 287 290 291 293 296 298 298 300 300 300 301 301 301 299 296 294 291 287
277 272 265 265 268 270 273 279 285 290 290 284 278 274 269 266 266 265 264 261 255 253 252 251 249 244 240 240 242 244 245 244 242 238 232 232 236 240 249 260 271 279 283 285 287 288 289 290 292 294 296 297 298 298 300 301 301 301 299 296 294 292 289
265 261 260 261 264 266 264 264 268 275 283 285 283 281 276 274 276 274 270 266 261 259 259 257 256 250 243 241 242 242 242 242 241 235 227 229 237 245 256 268 275 278 280 283 289 291 291 291 292 292 294 296 298 300 303 303 304 304 302 299 296 293 290
277 273 270 268 263 262 263 262 259 255 259 268 275 277 275 271 268 268 269 267 263 261 262 261 258 251 245 242 242 243 245 242 236 228 224 231 242 251 261 270 273 274 277 282 288 291 294 296 297 296 296 298 300 302 303 303 304 304 303 300 297 295 294
278 274 274 274 271 269 267 265 264 259 254 255 259 266 270 269 264 262 263 266 264 260 261 264 263 254 250 246 241 243 248 244 233 227 231 243 252 257 262 267 269 271 276 282 286 289 292 294 294 295 296 296 297 298 298 299 300 300 298 296 294 294 294
277 272 270 271 270 270 271 270 270 268 264 262 260 260 263 265 267 267 266 268 267 261 257 262 265 260 254 249 244 246 250 245 238 238 244 252 257 260 262 265 268 272 278 283 285 287 289 290 293 295 295 293 293 293 294 296 296 295 293 291 290 291 292
279 277 276 277 275 274 275 275 274 273 272 270 267 264 262 261 263 265 266 267 265 259 256 257 259 259 254 249 248 247 243 241 243 247 249 252 256 259 263 268 272 278 284 286 286 287 290 293 296 296 294 294 295 296 296 297 298 296 292 288 287 287 288
281 281 282 282 282 282 281 277 275 274 273 273 271 269 268 266 264 264 264 264 261 258 257 256 257 257 254 250 247 243 238 239 245 247 247 251 257 262 268 274 279 283 287 287 287 291 295 297 297 296 296 298 300 300 301 302 302 299 293 289 285 282 280
279 278 278 277 278 278 278 277 276 274 272 272 272 271 269 269 269 266 262 259 257 256 256 257 257 255 251 248 244 240 240 245 248 247 248 254 260 266 271 276 281 285 288 290 291 294 296 297 296 297 299 300 300 300 302 303 301 296 292 289 286 283 281
275 274 273 274 274 273 274 274 273 272 270 269 270 273 273 269 264 262 259 255 254 254 255 256 257 252 246 242 239 239 247 251 246 241 240 239 239 243 249 259 271 278 282 286 288 290 291 292 293 294 295 296 296 297 299 299 297 295 294 291 289 287 285
275 274 273 273 271 271 273 274 272 269 268 267 268 270 268 263 259 259 260 258 254 255 257 257 255 251 245 241 240 245 253 252 241 233 230 228 230 239 252 267 276 279 281 283 285 286 286 287 289 290 291 292 293 294 295 294 294 293 292 289 288 286 284
274 272 270 269 268 269 268 267 265 266 266 265 266 265 261 259 257 258 260 262 260 258 258 257 255 251 248 245 246 252 255 248 237 232 232 236 245 259 271 279 281 281 279 277 277 279 282 284 285 286 287 288 289 291 292 292 292 291 289 288 288 287 286
272 271 269 268 267 266 262 260 262 265 263 260 261 263 261 259 258 258 260 262 261 258 256 256 256 255 252 249 250 253 250 241 234 235 242 251 262 272 277 278 277 277 276 275 276 279 282 284 285 286 287 288 289 290 292 292 292 291 290 291 291 291 291
273 273 272 271 268 264 262 263 264 262 260 257 255 258 260 260 259 258 257 256 255 255 256 258 259 258 254 249 248 246 240 234 236 244 254 263 270 274 276 274 273 274 277 280 283 286 287 288 289 290 291 292 294 295 296 296 298 298 298 298 297 297 298
276 275 273 271 267 266 266 266 263 261 260 254 251 253 256 256 254 253 253 254 258 262 263 261 256 248 242 237 236 235 234 236 244 254 262 269 272 274 276 276 276 278 281 285 288 290 292 295 298 301 303 304 305 305 306 306 309 311 309 306 302 300 301
Height
1515 1516 1517 1518 1519 1520 1520 1520 1521 1521 1521 1522 1522 1523 1523 1523 1523 1523 1523 1523 1524 1524 1524 1523 1523 1523 1523 1524 1524 1525 1525 1526 1526 1527 1528 1529 1529 1530 1531 1531 1532 1532 1533 1534 1534 1535 1535 1536 1536 1536 1536 1536 1536 1537 1537 1538 1539 1539 1540 1541 1541 1542 1543
1515 1516 1517 1518 1519 1520 1520 1521 1521 1522 1522 1522 1523 1523 1524 1524 1524 1524 1524 1524 1524 1524 1524 1524 1524 1524 1524 1524 1524 1525 1525 1526 1526 1527 1528 1529 1529 1530 1531 1532 1532 1533 1533 1533 1534 1534 1534 1535 1535 1535 1535 1535 1535 1536 1536 1537 1537 1538 1538 1539 1539 1541 1542
1514 1515 1517 1517 1519 1520 1520 1521 1521 1522 1522 1523 1523 1523 1524 1524 1524 1524 1524 1525 1525 1525 1525 1525 1525 1525 1525 1525 1525 1525 1525 1526 1527 1527 1528 1528 1529 1530 1531 1532 1532 1533 1534 1534 1534 1534 1534 1535 1534 1534 1535 1535 1535 1535 1535 1536 1536 1536 1537 1537 1538 1539 1540
1514 1515 1516 1517 1518 1519 1520 1521 1521 1522 1522 1523 1523 1524 1524 1524 1525 1525 1525 1525 1525 1525 1525 1525 1525 1526 1526 1526 1526 1526 1526 1527 1527 1528 1528 1528 1529 1529 1530 1531 1532 1533 1533 1533 1533 1534 1534 1534 1534 1534 1534 1534 1534 1534 1534 1534 1534 1534 1534 1535 1536 1537 1538
1513 1515 1516 1517 1518 1519 1520 1521 1521 1522 1522 1523 1523 1524 1524 1525 1525 1525 1525 1525 1526 1526 1526 1526 1526 1526 1526 1527 1527 1527 1527 1528 1528 1528 1529 1529 1529 1529 1530 1531 1531 1532 1532 1532 1533 1533 1533 1533 1533 1533 1533 1533 1533 1533 1533 1533 1533 1533 1533 1534 1534 1535 1536
1513 1514 1515 1517 1518 1518 1519 1520 1521 1522 1522 1522 1523 1523 1524 1525 1525 1525 1526 1526 1526 1526 1526 1527 1527 1527 1527 1527 1527 1528 1528 1528 1529 1529 1529 1530 1530 1530 1530 1531 1531 1531 1531 1532 1532 1532 1532 1532 1532 1532 1532 1532 1532 1532 1533 1533 1533 1533 1533 1533 1533 1534 1534
1512 1514 1515 1516 1517 1518 1519 1520 1521 1521 1522 1522 1523 1523 1524 1524 1525 1525 1526 1526 1526 1526 1527 1527 1527 1527 1527 1528 1528 1528 1528 1529 1529 1529 1530 1530 1530 1530 1530 1530 1531 1531 1531 1531 1532 1532 1532 1532 1532 1532 1532 1532 1532 1532 1532 1532 1533 1533 1533 1533 1533 1534 1534
1512 1513 1514 1516 1517 1518 1519 1520 1521 1522 1522 1522 1522 1523 1524 1524 1524 1525 1525 1526 1526 1527 1527 1527 1527 1527 1528 1528 1528 1528 1528 1529 1529 1529 1530 1530 1530 1530 1530 1530 1531 1531 1531 1531 1531 1531 1531 1531 1532 1532 1532 1532 1532 1532 1531 1531 1532 1532 1532 1532 1533 1534 1535
1511 1512 1514 1516 1517 1518 1520 1520 1521 1522 1523 1523 1522 1523 1523 1524 1524 1525 1525 1525 1526 1526 1526 1527 1527 1527 1528 1528 1528 1528 1528 1529 1529 1529 1529 1530 1530 1530 1530 1530 1530 1531 1531 1531 1531 1531 1531 1531 1531 1532 1532 1532 1532 1532 1531 1531 1530 1531 1531 1531 1533 1533 1534
1511 1512 1514 1516 1517 1518 1520 1521 1521 1522 1523 1523 1523 1522 1523 1524 1524 1524 1524 1524 1525 1526 1526 1526 1527 1527 1527 1527 1527 1528 1528 1528 1529 1529 1529 1529 1529 1530 1530 1530 1530 1531 1531 1531 1531 1531 1531 1531 1531 1531 1532 1532 1533 1533 1532 1532 1531 1530 1531 1531 1532 1531 1531
1510 1512 1513 1515 1517 1518 1519 1520 1521 1522 1523 1524 1523 1522 1522 1523 1523 1524 1524 1524 1524 1525 1525 1526 1526 1526 1527 1527 1527 1527 1527 1528 1528 1528 1529 1529 1529 1529 1529 1530 1530 1530 1531 1531 1531 1531 1531 1531 1531 1531 1532 1532 1533 1533 1533 1532 1531 1531 1531 1531 1531 1531 1531
1510 1512 1513 1514 1516 1517 1518 1519 1520 1521 1522 1523 1523 1523 1522 1522 1523 1523 1523 1523 1523 1524 1524 1525 1525 1526 1526 1526 1527 1527 1527 1527 1527 1528 1528 1528 1529 1529 1529 1529 1530 1530 1530 1530 1530 1531 1531 1531 1531 1532 1532 1532 1532 1532 1532 1532 1531 1531 1531 1530 1530 1530 1530
1509 1511 1512 1513 1515 1515 1516 1517 1519 1520 1521 1521 1522 1522 1521 1521 1522 1522 1522 1523 1522 1523 1523 1524 1524 1525 1525 1526 1526 1526 1526 1527 1527 1527 1527 1528 1528 1529 1529 1529 1529 1529 1530 1530 1530 1530 1530 1530 1531 1531 1531 1531 1531 1531 1531 1531 1530 1530 1530 1530 1529 1529 1529
1508 1509 1510 1512 1513 1514 1515 1515 1517 1518 1519 1520 1521 1521 1521 1521 1521 1521 1521 1521 1522 1521 1522 1522 1523 1523 1524 1524 1525 1525 1525 1526 1526 1526 1526 1527 1527 1528 1528 1528 1528 1529 1529 1530 1530 1530 1530 1530 1530 1530 1531 1531 1531 1531 1531 1530 1530 1528 1528 1528 1528 1527 1527
1507 1508 1509 1510 1511 1512 1513 1514 1515 1516 1518 1519 1520 1520 1520 1520 1520 1520 1520 1520 1521 1521 1521 1521 1521 1522 1522 1523 1523 1524 1524 1524 1525 1525 1525 1525 1526 1526 1527 1527 1527 1527 1528 1529 1529 1529 1529 1529 1529 1530 1530 1531 1531 1531 1530 1530 1529 1527 1526 1526 1526 1525 1525
1505 1507 1508 1509 1510 1512 1513 1513 1514 1515 1516 1517 1518 1518 1519 1518 1519 1519 1519 1519 1520 1520 1520 1520 1519 1520 1520 1521 1522 1522 1523 1523 1524 1524 1524 1524 1524 1524 1525 1526 1526 1526 1527 1527 1527 1528 1528 1528 1528 1528 1529 1529 1529 1529 1529 1529 1528 1527 1525 1524 1524 1523 1523
1503 1505 1505 1506 1508 1510 1512 1513 1513 1514 1515 1516 1516 1516 1517 1517 1517 1517 1518 1518 1518 1519 1519 1519 1518 1518 1518 1520 1520 1521 1521 1522 1522 1523 1523 1523 1524 1523 1523 1524 1525 1525 1525 1526 1526 1526 1526 1526 1527 1527 1527 1528 1528 1528 1528 1527 1527 1526 1525 1523 1522 1522 1522
1502 1502 1503 1504 1505 1506 1509 1511 1513 1513 1514 1515 1515 1516 1516 1515 1515 1516 1516 1517 1517 1518 1518 1518 1517 1517 1517 1518 1519 1520 1520 1520 1521 1522 1522 1522 1523 1523 1522 1522 1523 1524 1524 1524 1524 1525 1525 1525 1525 1526 1526 1526 1526 1526 1526 1526 1525 1524 1523 1522 1521 1520 1520
1501 1501 1502 1502 1503 1504 1505 1507 1510 1511 1511 1512 1512 1513 1513 1512 1512 1514 1515 1516 1517 1517 1517 1517 1517 1517 1517 1516 1517 1518 1519 1519 1519 1520 1520 1520 1521 1521 1521 1521 1522 1522 1522 1523 1523 1523 1523 1524 1524 1524 1524 1523 1523 1523 1523 1523 1523 1522 1521 1520 1519 1518 1517
1500 1500 1501 1502 1503 1503 1503 1505 1508 1510 1509 1508 1508 1509 1509 1509 1511 1513 1513 1514 1515 1515 1515 1516 1516 1517 1517 1516 1515 1516 1517 1517 1518 1519 1519 1519 1519 1519 1519 1519 1520 1520 1521 1521 1521 1522 1522 1522 1522 1522 1522 1521 1521 1521 1520 1520 1520 1519 1519 1518 1517 1516 1515
1498 1499 1500 1500 1501 1502 1502 1503 1506 1507 1506 1505 1505 1506 1507 1508 1509 1510 1510 1510 1511 1511 1512 1514 1515 1516 1516 1515 1514 1513 1513 1514 1515 1517 1517 1517 1517 1517 1517 1517 1518 1518 1519 1519 1520 1520 1520 1520 1520 1520 1520 1520 1519 1519 1518 1518 1517 1517 1516 1516 1515 1514 1514
1498 1498 1499 1499 1500 1500 1501 1502 1503 1503 1503 1502 1502 1502 1503 1504 1505 1506 1506 1507 1507 1508 1509 1512 1514 1515 1515 1514 1513 1512 1511 1511 1512 1514 1515 1515 1516 1515 1515 1515 1516 1516 1517 1517 1518 1518 1517 1518 1518 1518 1518 1517 1517 1516 1516 1515 1515 1514 1514 1513 1512 1512 1511
1497 1498 1498 1499 1499 1500 1500 1501 1501 1501 1501 1500 1500 1500 1501 1501 1502 1502 1503 1503 1505 1505 1506 1509 1511 1512 1512 1512 1511 1511 1510 1510 1510 1511 1512 1513 1514 1513 1513 1513 1514 1514 1514 1515 1516 1515 1515 1515 1515 1515 1515 1515 1514 1514 1513 1513 1512 1512 1511 1510 1509 1509 1508
1497 1497 1498 1498 1499 1500 1500 1500 1500 1499 1499 1498 1499 1499 1499 1499 1500 1500 1500 1500 1501 1502 1503 1505 1506 1508 1509 1509 1509 1509 1509 1508 1507 1509 1510 1511 1511 1511 1511 1512 1512 1511 1512 1512 1513 1513 1513 1513 1513 1512 1512 1511 1511 1510 1510 1509 1509 1509 1508 1507 1506 1506 1505
1495 1496 1496 1497 1498 1499 1499 1499 1499 1498 1498 1498 1498 1497 1498 1498 1497 1498 1498 1498 1499 1500 1500 1501 1503 1504 1505 1506 1507 1507 1506 1505 1505 1507 1508 1509 1509 1510 1510 1510 1510 1510 1509 1509 1509 1510 1510 1510 1510 1510 1509 1509 1508 1507 1507 1506 1505 1505 1504 1503 1502 1502 1501
1494 1494 1495 1495 1496 1497 1497 1498 1498 1498 1497 1497 1497 1497 1496 1496 1496 1496 1496 1496 1497 1497 1497 1498 1500 1501 1501 1503 1504 1504 1504 1503 1503 1505 1506 1507 1507 1508 1508 1508 1508 1508 1508 1507 1507 1507 1506 1506 1506 1506 1505 1505 1504 1504 1503 1502 1502 1501 1500 1499 1497 1497 1497
1493 1493 1493 1494 1494 1495 1496 1496 1496 1496 1496 1496 1496 1496 1495 1495 1495 1495 1495 1494 1495 1495 1495 1495 1497 1498 1499 1499 1500 1501 1501 1501 1501 1503 1504 1505 1505 1506 1506 1506 1506 1506 1506 1505 1505 1504 1504 1504 1503 1503 1502 1501 1501 1500 1500 1499 1499 1498 1497 1495 1493 1492 1493
1492 1492 1492 1492 1493 1493 1493 1494 1494 1494 1494 1494 1494 1494 1494 1494 1493 1493 1493 1492 1493 1493 1493 1493 1494 1495 1496 1497 1498 1499 1499 1499 1500 1501 1502 1502 1503 1503 1503 1503 1503 1503 1504 1503 1503 1502 1502 1501 1501 1500 1499 1498 1498 1497 1496 1496 1495 1494 1493 1492 1490 1489 1489
1490 1490 1490 1490 1491 1491 1491 1491 1491 1492 1492 1492 1492 1491 1492 1492 1491 1491 1491 1490 1490 1490 1490 1491 1492 1493 1494 1495 1496 1496 1495 1496 1497 1499 1500 1500 1501 1501 1501 1501 1501 1501 1501 1500 1499 1499 1499 1499 1498 1497 1496 1495 1494 1493 1493 1492 1492 1491 1490 1489 1488 1487 1486
1489 1489 1489 1489 1488 1488 1488 1488 1489 1489 1489 1489 1489 1489 1489 1489 1489 1489 1489 1488 1487 1487 1488 1489 1489 1490 1491 1492 1492 1493 1493 1494 1495 1496 1497 1498 1498 1498 1499 1499 1499 1499 1498 1497 1496 1496 1496 1495 1494 1493 1492 1491 1490 1489 1488 1488 1487 1486 1486 1485 1484 1483 1482
1487 1487 1487 1487 1487 1487 1486 1486 1486 1486 1486 1486 1487 1487 1487 1487 1487 1486 1485 1485 1484 1484 1485 1486 1487 1487 1488 1489 1489 1490 1491 1492 1493 1494 1495 1496 1496 1496 1497 1497 1497 1496 1496 1495 1494 1493 1492 1491 1490 1490 1488 1487 1486 1485 1484 1483 1482 1481 1481 1480 1479 1478 1477
1485 1485 1485 1485 1485 1484 1484 1484 1484 1484 1484 1484 1484 1484 1484 1484 1483 1482 1482 1482 1481 1482 1483 1483 1484 1485 1485 1487 1488 1488 1489 1490 1491 1492 1493 1494 1494 1494 1495 1495 1495 1494 1494 1493 1491 1490 1489 1489 1488 1487 1485 1484 1482 1481 1480 1479 1478 1476 1475 1474 1473 1472 1472
1483 1483 1483 1482 1482 1482 1482 1482 1481 1481 1482 1482 1482 1482 1481 1480 1479 1479 1479 1479 1479 1480 1480 1481 1481 1482 1483 1485 1486 1486 1487 1487 1488 1489 1490 1491 1492 1492 1493 1493 1492 1492 1491 1490 1489 1488 1487 1486 1485 1484 1482 1481 1479 1478 1476 1475 1473 1472 1470 1468 1467 1466 1466
1480 1480 1480 1480 1480 1480 1479 1479 1479 1479 1480 1480 1480 1480 1478 1476 1476 1476 1476 1477 1477 1478 1478 1479 1480 1481 1482 1483 1483 1484 1484 1485 1486 1487 1488 1489 1490 1491 1491 1491 1489 1488 1488 1487 1486 1485 1484 1483 1482 1480 1479 1477 1476 1474 1472 1470 1468 1467 1465 1463 1461 1460 1460
1477 1477 1477 1477 1477 1477 1476 1477 1477 1477 1477 1478 1478 1477 1474 1473 1473 1473 1474 1474 1475 1476 1476 1477 1479 1479 1480 1481 1481 1482 1482 1483 1484 1486 1487 1488 1488 1488 1489 1488 1486 1485 1485 1484 1483 1482 1481 1480 1478 1476 1475 1473 1471 1470 1468 1466 1464 1462 1460 1458 1457 1455 1455
1474 1473 1473 1474 1474 1473 1473 1473 1474 1474 1474 1475 1475 1473 1471 1470 1471 1471 1472 1472 1473 1474 1475 1476 1477 1478 1479 1479 1480 1480 1481 1482 1483 1484 1485 1486 1486 1486 1486 1485 1483 1482 1481 1481 1480 1479 1478 1476 1474 1472 1471 1469 1467 1466 1464 1462 1460 1459 1457 1455 1454 1452 1452
1471 1471 1471 1471 1471 1471 1471 1470 1470 1470 1471 1472 1472 1470 1469 1468 1469 1470 1470 1470 1471 1472 1473 1474 1475 1476 1477 1478 1479 1480 1480 1481 1482 1482 1483 1483 1483 1483 1482 1482 1481 1480 1479 1478 1477 1476 1474 1472 1470 1469 1467 1466 1465 1463 1462 1460 1458 1457 1455 1453 1452 1451 1450